Regional Weather Roundup
Issued by NWS

Home | Current Version | Previous Version | Text Only | Print | Product List | Glossary On
Versions: 1 2 3 4 5 6 7 8 9 10 11 12 13 14 15 16 17 18 19 20 21 22 23 24 25 26 27 28 29 30 31 32 33 34 35 36 37 38 39 40 41 42 43 44 45 46 47 48 49 50
000
ASUS43 KDTX 301301
RWRMI
MICHIGAN HOURLY REGIONAL WEATHER ROUNDUP
NATIONAL WEATHER SERVICE DETROIT/PONTIAC MI
900 AM EDT SAT APR 30 2016

NOTE: "FAIR" INDICATES FEW OR NO CLOUDS BELOW 12,000 FEET WITH NO
SIGNIFICANT WEATHER AND/OR OBSTRUCTION TO VISIBILITY.

MIZ047>049-052>055-059>063-066>070-074>076-081>083-301400-
SOUTHEAST LOWER MICHIGAN

CITY           SKY/WX    TMP DP  RH WIND       PRES   REMARKS
ADRIAN         MOSUNNY   46  37  71 E10       30.13F
ALMA           CLOUDY    43  33  66 NE3       30.19R
ANN ARBOR      CLOUDY    48  32  53 E7        30.13S
BAD AXE        CLOUDY    45  32  60 E8        30.20S
CARO           CLOUDY    42  33  72 E5        30.18S
DETROIT CITY   PTSUNNY   47  35  63 E10       30.17S
DETROIT        CLOUDY    48  34  58 NE7       30.16R
FLINT          CLOUDY    48  32  53 E7        30.18S
GROSSE ILE     CLOUDY    46  37  71 E6        30.14R
HILLSDALE      CLOUDY    46  35  66 E9        30.11S
HOWELL         MOSUNNY   46  33  60 E6        30.15S

CITY           SKY/WX    TMP DP  RH WIND       PRES   REMARKS
JACKSON        CLOUDY    47  33  58 NE6       30.13S
LAMBERTVILLE   MOSUNNY   50  39  66 E9        30.13S
LANSING        CLOUDY    46  34  62 NE9       30.15F
LAPEER         PTSUNNY   47  33  58 E3        30.18R
MASON          CLOUDY    45  35  69 NE8       30.14F
MONROE         CLOUDY    47  38  72 E8        30.13F
PONTIAC        PTSUNNY   48  32  53 E9        30.15R
PORT HOPE        N/A     42  35  76 E3        30.19R
PORT HURON     SUNNY     48  34  57 E9        30.19S
TRI CITIES     CLOUDY    46  37  71 NE7       30.20R
MIDLAND        FAIR      46  35  66 NE7       30.19S
TROY           MOSUNNY   47  32  55 E8        30.18S
SAGINAW HB     CLOUDY    41  34  75 NE5       30.18F
$$
MIZ043>046-050>051-056>058-064>065-071>073-077>080-301400-
SOUTHWEST LOWER MICHIGAN

CITY           SKY/WX    TMP DP  RH WIND       PRES   REMARKS
BATTLE CREEK   CLOUDY    47  37  68 E7        30.12F
BENTON HARBOR  CLOUDY    49  38  65 E8        30.10S
BIG RAPIDS     CLOUDY    44  34  70 E6        30.17S
COLDWATER      PTSUNNY   47  38  72 E9        30.12R
FREMONT        FAIR      44  37  78 E8        30.15F
HOLLAND        CLOUDY    46  39  76 E7        30.13S
GRAND RAPIDS   CLOUDY    45  38  76 E9        30.14S
IONIA          FAIR      42  37  82 NE7       30.14F
KALAMAZOO      PTSUNNY   49  39  68 E5        30.12S
LUDINGTON      MOSUNNY   44  36  74 E7        30.16S
MARSHALL       CLOUDY    47  39  72 E6        30.11F
MOUNT PLEASANT CLOUDY    43  36  74 E7        30.18F
MUSKEGON       CLOUDY    45  36  70 E9        30.14S
$$
MIZ016>042-301400-
NORTHERN LOWER MICHIGAN

CITY           SKY/WX    TMP DP  RH WIND       PRES   REMARKS
ALPENA         SUNNY     47  32  56 N3        30.21F
BEAVER ISLAND  SUNNY     47  31  55 NE7       30.20S
BELLAIRE       CLOUDY    45  31  57 CALM      30.20S
CADILLAC       CLOUDY    44  28  53 E9        30.17S
CHARLEVOIX     SUNNY     45  32  62 E5        30.22S
FRANKFORT      MOSUNNY   46  39  79 CALM      30.18S
GAYLORD        SUNNY     45  26  47 SE6       30.18R
HARBOR SPRINGS SUNNY     45  31  58 E7        30.20S
HOUGHTON LAKE  MOSUNNY   44  28  53 E7        30.20R
MANISTEE       CLOUDY    43  36  75 E7        30.17F
OSCODA         SUNNY     45  32  60 CALM      30.21R
PELLSTON       SUNNY     43  33  68 CALM      30.20F
ROGERS CITY    SUNNY     43  32  65 CALM      30.23S
TRAVERSE CITY  PTSUNNY   47  32  56 VRB3      30.19R
$$
MIZ007>008-015-301400-
EASTERN UPPER MICHIGAN

CITY           SKY/WX    TMP DP  RH WIND       PRES   REMARKS
KINROSS          N/A     39  34  81 CALM      30.22S
MACKINAC ISLAN SUNNY     43  32  65 E6        30.21S
NEWBERRY       SUNNY     41  34  75 N3        30.21S
S. S. MARIE    SUNNY     42  34  73 SE6       30.22S
MUNISING         N/A     40  35  83 E5        30.23R
$$
MIZ004>006-011>014-085-301400-
CENTRAL UPPER MICHIGAN

CITY           SKY/WX    TMP DP  RH WIND       PRES   REMARKS
MANISTIQUE     SUNNY     42  35  74 N13       30.20S
ESCANABA       SUNNY     45  32  61 N7        30.20S
MENOMINEE      MOSUNNY   45  34  65 E14       30.20R
SAWYER-GWINN   MOSUNNY   39  32  75 NE10      30.24R WCI  32
$$
MIZ001>003-009>011-084-301400-
WESTERN UPPER MICHIGAN

CITY           SKY/WX    TMP DP  RH WIND       PRES   REMARKS
IRON MOUNTAIN  CLOUDY    43  30  60 NE7       30.19R
HOUGHTON       PTSUNNY   45  32  60 NE7       30.25R
COPPER HARBOR    N/A     40  37  89 E10       30.27S WCI  33
IRONWOOD         N/A     37  34  87 E6        30.21S WCI  33
$$

ABBREVIATIONS USED IN REMARKS
   TC - TEMPERATURE IN CELSIUS
  WCI - WIND CHILL INDEX
   HX - HEAT INDEX
  VSB - VISIBILITY





USA.gov is the U.S. government's official web portal to all federal, state and local government web resources and services.